UAE145 OMDB-EHAM

Flight info

Callsign UAE145
Flight time N/A
Altitude 38000
Route RIDAP M557 TUMAK L602 GADSI M860 SEPTU/N0483F400 DCT VUSEB M860 NINVA UM860 ODALI UL852 NEGEM DCT MAXOV DCT BADOR DCT PITOK DCT MAKAL DCT LALUK DCT NORKU
Aircraft A359/H-SDE2E3GHIJ3J4J5LM1ORWXY/LB1D1

Departure

Time 2026-04-25 14:00
Airport Dubai International Airport (OMDB)

Arrival

Time N/A
Airport Amsterdam Airport Schiphol (EHAM)
Time Latitude Longitude Altitude Speed Heading
2026-04-25 13:30 25.24926 55.36224 27 ft 0 kts 211°
2026-04-25 13:44 25.24928 55.36225 27 ft 2 kts 211°
2026-04-25 13:44 25.24951 55.36240 25 ft 4 kts 211°
2026-04-25 13:44 25.24973 55.36256 25 ft 4 kts 212°
2026-04-25 13:44 25.24992 55.36274 25 ft 4 kts 249°
2026-04-25 13:45 25.24993 55.36300 23 ft 4 kts 295°
2026-04-25 13:45 25.24982 55.36322 25 ft 2 kts 302°
2026-04-25 13:45 25.24969 55.36345 24 ft 0 kts 302°
2026-04-25 13:47 25.24974 55.36336 24 ft 4 kts 300°
2026-04-25 13:47 25.24998 55.36290 25 ft 8 kts 300°
2026-04-25 13:47 25.25031 55.36234 27 ft 9 kts 303°
2026-04-25 13:48 25.25068 55.36171 27 ft 10 kts 303°
2026-04-25 13:48 25.25106 55.36100 27 ft 11 kts 301°
2026-04-25 13:48 25.25147 55.36028 27 ft 11 kts 303°
2026-04-25 13:48 25.25192 55.35951 27 ft 12 kts 303°
2026-04-25 13:49 25.25240 55.35867 27 ft 13 kts 302°
2026-04-25 13:49 25.25291 55.35777 27 ft 14 kts 302°
2026-04-25 13:49 25.25343 55.35681 27 ft 15 kts 301°
2026-04-25 13:49 25.25397 55.35582 27 ft 14 kts 302°
2026-04-25 13:50 25.25451 55.35488 27 ft 15 kts 302°
2026-04-25 13:50 25.25507 55.35389 27 ft 16 kts 302°
2026-04-25 13:50 25.25566 55.35285 27 ft 16 kts 302°
2026-04-25 13:50 25.25625 55.35182 27 ft 15 kts 306°
2026-04-25 13:51 25.25700 55.35165 27 ft 10 kts 31°
2026-04-25 13:51 25.25760 55.35208 27 ft 0 kts 33°
2026-04-25 13:52 25.25771 55.35216 27 ft 4 kts 33°
2026-04-25 13:52 25.25799 55.35235 27 ft 6 kts 33°
2026-04-25 13:52 25.25837 55.35261 27 ft 8 kts 30°
2026-04-25 13:53 25.25898 55.35300 27 ft 11 kts 31°
2026-04-25 13:53 25.25963 55.35350 28 ft 12 kts 44°
2026-04-25 13:53 25.26003 55.35433 28 ft 13 kts 74°
2026-04-25 13:53 25.25994 55.35534 28 ft 14 kts 110°
2026-04-25 13:54 25.25948 55.35630 28 ft 15 kts 120°
2026-04-25 13:54 25.25891 55.35731 28 ft 16 kts 122°
2026-04-25 13:54 25.25830 55.35839 28 ft 17 kts 122°
2026-04-25 13:54 25.25764 55.35954 28 ft 18 kts 122°
2026-04-25 13:55 25.25694 55.36077 29 ft 20 kts 122°
2026-04-25 13:55 25.25621 55.36208 29 ft 20 kts 122°
2026-04-25 13:55 25.25544 55.36346 28 ft 22 kts 122°
2026-04-25 13:55 25.25463 55.36489 28 ft 23 kts 121°
2026-04-25 13:56 25.25378 55.36642 28 ft 24 kts 122°
2026-04-25 13:56 25.25288 55.36803 28 ft 24 kts 122°
2026-04-25 13:56 25.25197 55.36962 28 ft 25 kts 122°
2026-04-25 13:56 25.25108 55.37124 29 ft 25 kts 122°
2026-04-25 13:57 25.25014 55.37288 29 ft 26 kts 122°
2026-04-25 13:57 25.24952 55.37399 30 ft 26 kts 122°
2026-04-25 13:57 25.24837 55.37602 29 ft 18 kts 122°
2026-04-25 13:57 25.24769 55.37724 29 ft 18 kts 122°
2026-04-25 13:58 25.24706 55.37835 28 ft 17 kts 122°
2026-04-25 13:58 25.24665 55.37935 29 ft 12 kts 85°
2026-04-25 13:58 25.24713 55.37987 30 ft 10 kts 32°
2026-04-25 13:58 25.24771 55.38018 31 ft 9 kts 10°
2026-04-25 13:59 25.24825 55.37995 31 ft 7 kts 304°
2026-04-25 13:59 25.24834 55.37977 31 ft 2 kts 301°
2026-04-25 13:59 25.24970 55.37733 32 ft 81 kts 302°
2026-04-25 13:59 25.25412 55.36937 32 ft 160 kts 301°
2026-04-25 14:00 25.26033 55.35771 650 ft 177 kts 302°
2026-04-25 14:00 25.26646 55.34588 1600 ft 180 kts 302°
2026-04-25 14:00 25.27317 55.33398 1979 ft 190 kts 303°
2026-04-25 14:00 25.28052 55.32122 2198 ft 209 kts 303°
2026-04-25 14:01 25.28856 55.30707 2504 ft 223 kts 303°
2026-04-25 14:01 25.29687 55.29227 3060 ft 228 kts 303°
2026-04-25 14:01 25.30575 55.27772 3617 ft 230 kts 306°
2026-04-25 14:01 25.31513 55.26328 3939 ft 231 kts 306°
2026-04-25 14:02 25.32451 55.24883 4006 ft 232 kts 306°
2026-04-25 14:02 25.33392 55.23426 4011 ft 233 kts 306°
2026-04-25 14:02 25.34334 55.21961 4011 ft 234 kts 305°
2026-04-25 14:02 25.34637 55.21485 4012 ft 234 kts 305°
2026-04-25 14:03 25.35793 55.18781 4332 ft 240 kts 277°
2026-04-25 14:03 25.35836 55.16885 4597 ft 259 kts 268°
2026-04-25 14:03 25.35749 55.14866 5112 ft 265 kts 267°
2026-04-25 14:03 25.35658 55.12818 5723 ft 268 kts 267°
2026-04-25 14:04 25.35573 55.10749 6352 ft 270 kts 268°
2026-04-25 14:04 25.35492 55.08664 6956 ft 273 kts 268°
2026-04-25 14:04 25.35412 55.06554 7558 ft 276 kts 268°
2026-04-25 14:04 25.35334 55.04421 8197 ft 279 kts 267°
2026-04-25 14:05 25.35255 55.02265 8861 ft 282 kts 267°
2026-04-25 14:05 25.35175 55.00089 9550 ft 284 kts 267°
2026-04-25 14:05 25.35095 54.97924 10175 ft 288 kts 267°
2026-04-25 14:05 25.35011 54.95652 10512 ft 304 kts 267°
2026-04-25 14:06 25.34922 54.93246 10753 ft 322 kts 267°
2026-04-25 14:06 25.34974 54.90716 10979 ft 339 kts 277°
2026-04-25 14:06 25.35559 54.88130 11226 ft 354 kts 286°
2026-04-25 14:06 25.36325 54.85484 11464 ft 368 kts 287°
2026-04-25 14:07 25.37122 54.82769 11893 ft 373 kts 287°
2026-04-25 14:07 25.37918 54.80028 12441 ft 376 kts 287°
2026-04-25 14:07 25.38719 54.77255 12914 ft 381 kts 286°
2026-04-25 14:07 25.39525 54.74447 13398 ft 385 kts 286°
2026-04-25 14:08 25.40338 54.71610 13853 ft 389 kts 286°
2026-04-25 14:08 25.41160 54.68750 14328 ft 391 kts 286°
2026-04-25 14:08 25.41968 54.65910 14807 ft 393 kts 285°
2026-04-25 14:08 25.42790 54.63020 15310 ft 395 kts 285°
2026-04-25 14:09 25.43620 54.60113 15804 ft 397 kts 286°
2026-04-25 14:09 25.44474 54.57198 16304 ft 399 kts 286°
2026-04-25 14:09 25.45342 54.54273 16783 ft 402 kts 286°
2026-04-25 14:09 25.45627 54.53315 16940 ft 403 kts 286°
2026-04-25 14:10 25.47101 54.48366 17757 ft 406 kts 285°
2026-04-25 14:10 25.47984 54.45392 18251 ft 408 kts 285°
2026-04-25 14:10 25.48857 54.42441 18665 ft 410 kts 285°
2026-04-25 14:10 25.49743 54.39439 19122 ft 411 kts 285°
2026-04-25 14:11 25.50631 54.36426 19565 ft 413 kts 285°
2026-04-25 14:11 25.51522 54.33399 20030 ft 414 kts 285°
2026-04-25 14:11 25.52413 54.30369 20516 ft 415 kts 285°
2026-04-25 14:11 25.53306 54.27330 21020 ft 415 kts 285°
2026-04-25 14:12 25.54199 54.24287 21493 ft 416 kts 285°
2026-04-25 14:12 25.55099 54.21234 21984 ft 417 kts 285°
2026-04-25 14:12 25.55998 54.18172 22451 ft 419 kts 285°
2026-04-25 14:12 25.56898 54.15100 22923 ft 420 kts 285°
2026-04-25 14:13 25.57788 54.12058 23375 ft 421 kts 285°
2026-04-25 14:13 25.58693 54.08962 23763 ft 424 kts 285°
2026-04-25 14:13 25.59604 54.05848 24113 ft 426 kts 285°
2026-04-25 14:13 25.60513 54.02711 24458 ft 429 kts 285°
2026-04-25 14:14 25.61414 53.99552 24834 ft 431 kts 284°
2026-04-25 14:14 25.62313 53.96378 25222 ft 434 kts 284°
2026-04-25 14:14 25.63219 53.93177 25613 ft 437 kts 285°
2026-04-25 14:14 25.64133 53.89947 25966 ft 441 kts 285°
2026-04-25 14:15 25.65054 53.86699 26387 ft 443 kts 285°
2026-04-25 14:15 25.65353 53.85645 26514 ft 443 kts 285°
2026-04-25 14:15 25.66885 53.80247 27193 ft 447 kts 285°
2026-04-25 14:15 25.67820 53.76952 27598 ft 449 kts 284°
2026-04-25 14:16 25.68760 53.73638 27992 ft 452 kts 284°
2026-04-25 14:16 25.69705 53.70311 28426 ft 453 kts 284°
2026-04-25 14:16 25.70648 53.66970 28816 ft 455 kts 284°
2026-04-25 14:16 25.71591 53.63609 29176 ft 458 kts 284°
2026-04-25 14:17 25.72535 53.60238 29538 ft 460 kts 284°
2026-04-25 14:17 25.73485 53.56846 29892 ft 462 kts 284°
2026-04-25 14:17 25.74438 53.53437 30176 ft 464 kts 284°
2026-04-25 14:17 25.75384 53.50060 30471 ft 466 kts 284°
2026-04-25 14:18 25.76348 53.46627 30776 ft 466 kts 284°
2026-04-25 14:18 25.77313 53.43193 31081 ft 467 kts 283°
2026-04-25 14:18 25.78280 53.39748 31434 ft 466 kts 283°
2026-04-25 14:18 25.79241 53.36319 31860 ft 464 kts 283°
2026-04-25 14:19 25.80197 53.32908 32287 ft 462 kts 283°
2026-04-25 14:19 25.81147 53.29510 32693 ft 460 kts 283°
2026-04-25 14:19 25.82330 53.25278 33174 ft 458 kts 283°
2026-04-25 14:19 25.84267 53.18682 33786 ft 460 kts 288°
2026-04-25 14:20 25.86790 53.12166 34513 ft 456 kts 290°
2026-04-25 14:20 25.87661 53.10009 34830 ft 452 kts 290°
2026-04-25 14:20 25.91900 52.99638 36259 ft 436 kts 291°
2026-04-25 14:20 25.94380 52.93544 36902 ft 431 kts 291°
2026-04-25 14:21 25.96821 52.87521 37530 ft 425 kts 292°
2026-04-25 14:21 25.99238 52.81545 37911 ft 424 kts 292°
2026-04-25 14:21 26.01621 52.75642 37931 ft 424 kts 292°
2026-04-25 14:22 26.06835 52.63855 37918 ft 425 kts 295°
2026-04-25 14:22 26.12167 52.52145 37912 ft 424 kts 294°
2026-04-25 14:23 26.17448 52.40425 37928 ft 423 kts 294°
2026-04-25 14:23 26.22716 52.28702 37917 ft 423 kts 294°
2026-04-25 14:24 26.27772 52.16995 37920 ft 422 kts 293°
2026-04-25 14:24 26.32851 52.05206 37917 ft 422 kts 293°
2026-04-25 14:25 26.37812 51.93381 37918 ft 420 kts 289°
2026-04-25 14:25 26.41966 51.81218 37917 ft 419 kts 289°
2026-04-25 14:26 26.46032 51.69032 37927 ft 418 kts 288°
2026-04-25 14:26 26.50092 51.56874 37916 ft 418 kts 288°
2026-04-25 14:27 26.54094 51.44811 37929 ft 417 kts 288°
2026-04-25 14:27 26.58121 51.32654 37932 ft 417 kts 288°
2026-04-25 14:28 26.62136 51.20526 37936 ft 416 kts 288°
2026-04-25 14:28 26.66141 51.08408 37939 ft 415 kts 288°
2026-04-25 14:29 26.70124 50.96276 37949 ft 415 kts 288°
2026-04-25 14:29 26.73986 50.84130 37950 ft 414 kts 288°
2026-04-25 14:30 26.77826 50.72074 37950 ft 414 kts 288°
2026-04-25 14:30 26.83289 50.60718 37951 ft 421 kts 303°
2026-04-25 14:30 26.86963 50.55602 37955 ft 422 kts 304°
2026-04-25 14:31 26.94541 50.45531 37956 ft 425 kts 307°
2026-04-25 14:31 27.02765 50.35992 37955 ft 425 kts 308°
2026-04-25 14:32 27.10852 50.26350 37958 ft 424 kts 307°
2026-04-25 14:32 27.19387 50.17262 37963 ft 432 kts 315°
2026-04-25 14:33 27.29073 50.09239 37960 ft 432 kts 316°
2026-04-25 14:33 27.38756 50.01215 37960 ft 431 kts 315°
2026-04-25 14:34 27.48154 49.92878 37961 ft 429 kts 314°
2026-04-25 14:34 27.57563 49.84557 37958 ft 431 kts 314°
2026-04-25 14:35 27.66932 49.76288 37972 ft 431 kts 314°
2026-04-25 14:35 27.76371 49.67934 37954 ft 432 kts 314°
2026-04-25 14:36 27.85802 49.59539 37972 ft 432 kts 314°
2026-04-25 14:36 27.95255 49.51074 37964 ft 434 kts 314°
2026-04-25 14:37 28.04693 49.42614 37966 ft 433 kts 314°
2026-04-25 14:37 28.14032 49.34078 37963 ft 434 kts 313°
2026-04-25 14:38 28.23438 49.25469 37960 ft 435 kts 313°
2026-04-25 14:38 28.32839 49.16863 37960 ft 434 kts 313°
2026-04-25 14:39 28.42463 49.08461 37966 ft 440 kts 317°
2026-04-25 14:39 28.52616 49.00656 37978 ft 440 kts 317°
2026-04-25 14:40 28.62800 48.92846 37960 ft 442 kts 317°
2026-04-25 14:40 28.72988 48.85000 37961 ft 443 kts 317°
2026-04-25 14:41 28.83136 48.77173 37960 ft 444 kts 317°
2026-04-25 14:41 28.93413 48.69305 37958 ft 446 kts 317°
2026-04-25 14:42 29.00311 48.64012 37957 ft 446 kts 317°
2026-04-25 14:42 29.13992 48.53481 37955 ft 445 kts 317°
2026-04-25 14:43 29.24266 48.45548 37958 ft 446 kts 317°
2026-04-25 14:43 29.34554 48.37587 37950 ft 446 kts 317°
2026-04-25 14:44 29.44761 48.29677 37960 ft 447 kts 318°
2026-04-25 14:44 29.55678 48.22524 37962 ft 453 kts 322°
2026-04-25 14:45 29.66633 48.15412 37939 ft 452 kts 321°
2026-04-25 14:45 29.77529 48.08202 37940 ft 452 kts 321°
2026-04-25 14:46 29.88433 48.00976 37926 ft 452 kts 321°
2026-04-25 14:46 29.99245 47.93766 37924 ft 450 kts 319°
2026-04-25 14:47 30.03995 47.89304 37927 ft 433 kts 305°
2026-04-25 14:47 30.05393 47.87587 37950 ft 432 kts 304°
2026-04-25 14:47 30.15868 47.73643 37907 ft 432 kts 303°
2026-04-25 14:48 30.23726 47.63104 37921 ft 433 kts 303°
2026-04-25 14:48 30.31600 47.52542 37919 ft 434 kts 303°
2026-04-25 14:49 30.39459 47.41969 37918 ft 433 kts 303°
2026-04-25 14:49 30.47264 47.31441 37936 ft 433 kts 303°
2026-04-25 14:50 30.55069 47.20895 37904 ft 434 kts 303°
2026-04-25 14:50 30.64323 47.11534 37906 ft 445 kts 312°
2026-04-25 14:51 30.73989 47.02558 37905 ft 445 kts 312°
2026-04-25 14:51 30.83636 46.93523 37907 ft 446 kts 312°
2026-04-25 14:52 30.93296 46.84445 37924 ft 447 kts 311°
2026-04-25 14:52 30.99714 46.78399 37924 ft 448 kts 311°
2026-04-25 14:53 31.12627 46.66206 37933 ft 449 kts 311°
2026-04-25 14:53 31.22337 46.57008 37941 ft 450 kts 311°
2026-04-25 14:54 31.32065 46.47768 37935 ft 451 kts 311°
2026-04-25 14:54 31.40156 46.40062 37949 ft 451 kts 311°
2026-04-25 14:55 31.51473 46.29256 37952 ft 451 kts 312°
2026-04-25 14:55 31.61191 46.19949 37958 ft 451 kts 312°
2026-04-25 14:56 31.69353 46.12111 37974 ft 453 kts 312°
2026-04-25 14:56 31.79003 46.02781 37972 ft 453 kts 311°
2026-04-25 14:57 31.88631 45.93175 37973 ft 454 kts 311°
2026-04-25 14:57 31.98299 45.83546 37975 ft 457 kts 311°
2026-04-25 14:58 32.08007 45.73868 37982 ft 457 kts 311°
2026-04-25 14:58 32.17717 45.64155 37985 ft 457 kts 311°
2026-04-25 14:59 32.27386 45.54454 37987 ft 460 kts 311°
2026-04-25 14:59 32.37127 45.44654 37975 ft 460 kts 311°
2026-04-25 15:00 32.46850 45.34842 37981 ft 459 kts 311°
2026-04-25 15:00 32.56755 45.25231 37975 ft 465 kts 317°